KMANKALW

Guest
Details From KMAN - NAMPA MUNI
To KALW - Walla Walla Rgnl
Flight Number -
Tags decoded
Created
Modified
Stats Distance 172 nm / 318 km
Max Altitude 0 ft / 0 m
Waypoints 3
Social Downloads 2
Likes 0
Share VATSIM

Download

Looking for another format? Having issues loading an existing format? Contact us
Advertisement - Login to hide

Notes

Requested: KMAN KBKE KALW

Route

KMAN KBKE KALW

ID Type Via Altitude Latitude Longitude Leg Dist Tot Dist Heading (true) Name
O KMAN APT - 0 ft / 0 m 43.58134˚ -116.52306˚ - 0 nm - NAMPA MUNI
KBKE APT - 0 ft / 0 m 44.83732˚ -117.80912˚ 93 nm 93 nm 324° / 323° BAKER CITY MUNI
O KALW APT - 0 ft / 0 m 46.09491˚ -118.28914˚ 78 nm 171 nm 345° / 345° Walla Walla Rgnl

Altitude Profile

Advertisement - Login to hide

Weather


0- 5 10 15 20 25 30 35+ Temperature / ° C

Clouds and Precipitation
Forecast for 2017-12-17 00:00 UTC. Updated 2 hours ago

Ground ~20,000 ft ~40,000 ft Winds

KMAN

Details ICAO KMAN
Name NAMPA MUNI
Region United States
Timezone America/Boise (UTC-7.0)
Stats Elevation 2,537 ft / 773 m (AMSL)
Location 43.581342° -116.523062°
Runways 1
Magnetic Variation 13.450° E

METAR

KMAN 162035Z AUTO 30011KT 10SM CLR 01/00 A3012 RMK A01

Decode

TAF

Not found

Departure Runways

ID Width Length Bearing (true) Bearing (mag) Surface Threshold Offset Overrun Length
11 75 ft / 23 m 4,994 ft / 1,522 m 125.74° 112.29° Asphalt 0 ft / 0 m 0 ft / 0 m
29 75 ft / 23 m 4,994 ft / 1,522 m 305.76° 292.31° Asphalt 0 ft / 0 m 0 ft / 0 m

KALW

Details ICAO KALW (ALW)
Name Walla Walla Rgnl
Region United States
Timezone America/Los_Angeles (UTC-8.0)
Stats Elevation 1,205 ft / 367 m (AMSL)
Location 46.094914° -118.289140°
Runways 3
Magnetic Variation 14.467° E

METAR

KALW 162026Z 33004KT 7SM OVC015 02/M01 A3029 RMK AO2 T00171006

Decode

TAF

KALW 161729Z 1618/1718 20007KT P6SM BKN010 BKN060 FM170600 15005KT 6SM BR OVC020 FM171200 16006KT 4SM BR BKN030 OVC050

Decode

Destination Runways

ID Width Length Bearing (true) Bearing (mag) Surface Threshold Offset Overrun Length
02 151 ft / 46 m 6,524 ft / 1,988 m 36.09° 21.62° Asphalt 0 ft / 0 m 1,161 ft / 354 m
07 151 ft / 46 m 4,475 ft / 1,364 m 89.67° 75.20° Asphalt 0 ft / 0 m 0 ft / 0 m
16 151 ft / 46 m 6,605 ft / 2,013 m 179.68° 165.21° Asphalt 0 ft / 0 m 0 ft / 0 m
20 151 ft / 46 m 6,524 ft / 1,988 m 216.11° 201.64° Asphalt 0 ft / 0 m 1,027 ft / 313 m
25 151 ft / 46 m 4,475 ft / 1,364 m 269.68° 255.21° Asphalt 0 ft / 0 m 1,959 ft / 597 m
34 151 ft / 46 m 6,605 ft / 2,013 m 359.68° 345.21° Asphalt 659 ft / 201 m 0 ft / 0 m

Approach Navaids

Runway Type Ident Frequency Range Bearing (true) Bearing (mag) Slope Elevation
20 Localiser IALW 111.70 MHz 18 nm / 33 km 216.09° 201.62° - 1,148 ft / 350 m (AMSL)
20 Glidescope IALW 111.70 MHz 10 nm / 19 km 216.10° 201.63° 3.00° 1,193 ft / 364 m (AMSL)

Popular Alternatives